Location: Asheville, NC
(35.6000°N, 82.5500°W)
Time: 23:03:01
(UTC-04:00)

YUBILEINY - Visible Passes

Search period start: 23 April 2018 00:00
Search period end: 03 May 2018 00:00
Orbit: 1478 x 1508 km, 82.5° (Epoch: 23 April)

Date Brightness Start Highest point End Pass type
(mag) Time Alt. Az. Time Alt. Az. Time Alt. Az.
23 Apr ? 00:13:19 10° NNE 00:18:56 18° ENE 00:19:05 18° ENE visible
23 Apr ? 02:07:53 10° N 02:14:59 63° NNW 02:14:59 63° NNW visible
23 Apr ? 04:08:19 10° NW 04:10:53 13° WNW 04:10:53 13° WNW visible
24 Apr ? 01:18:30 10° N 01:25:48 51° NE 01:25:48 51° NE visible
24 Apr ? 03:16:12 10° NNW 03:21:42 27° WNW 03:21:42 27° WNW visible
25 Apr ? 00:29:44 10° NNE 00:36:37 29° ENE 00:36:37 29° ENE visible
25 Apr ? 02:25:46 10° NNW 02:32:31 48° NW 02:32:31 48° NW visible
25 Apr ? 23:42:21 10° NNE 23:46:45 14° ENE 23:47:27 14° ENE visible
26 Apr ? 01:36:00 10° N 01:43:21 65° N 01:43:21 65° N visible
26 Apr ? 03:35:19 10° NW 03:39:16 17° WNW 03:39:16 17° WNW visible
27 Apr ? 00:46:47 10° N 00:54:12 44° ENE 00:54:12 44° ENE visible
27 Apr ? 02:43:57 10° NNW 02:50:06 33° WNW 02:50:06 33° WNW visible
27 Apr ? 23:58:16 10° NNE 00:05:03 24° ENE 00:05:03 24° ENE visible
28 Apr ? 01:53:46 10° NNW 02:00:57 58° NW 02:00:57 58° NW visible
28 Apr ? 23:12:08 10° NE 23:14:31 11° ENE 23:15:55 11° ENE visible
29 Apr ? 01:04:09 10° N 01:11:49 64° NE 01:11:49 64° NE visible
29 Apr ? 03:02:42 10° NW 03:07:43 21° WNW 03:07:43 21° WNW visible
30 Apr ? 00:15:07 10° N 00:22:41 38° ENE 00:22:41 38° ENE visible
30 Apr ? 02:11:49 10° NNW 02:18:36 40° WNW 02:18:36 40° WNW visible
30 Apr ? 23:26:56 10° NNE 23:32:57 20° ENE 23:33:34 19° ENE visible
01 May ? 01:21:48 10° N 01:29:29 69° NW 01:29:29 69° NW visible
01 May ? 03:22:55 10° NW 03:25:23 12° WNW 03:25:23 12° WNW visible
02 May ? 00:32:21 10° N 00:40:22 57° ENE 00:40:22 57° ENE visible
02 May ? 02:30:17 10° NNW 02:36:17 26° WNW 02:36:17 26° WNW visible
02 May ? 23:43:30 10° NNE 23:51:09 31° ENE 23:51:17 31° ENE visible
